Silver City, NM

8:41 PM MDT on May 26, 2017 (GMT -0600)
Grant County

Weather History for KSVC - February, 2013

Change the Weather History Date:

Thursday, February 28, 2013

  Actual Average (KDMN) Record (KDMN)
Temperature  
Mean Temperature 34 °F -  
Max Temperature 53 °F 64 °F 80 °F (2006)
Min Temperature 15 °F 31 °F 12 °F (2011)
Degree Days  
Heating Degree Days 31    
Moisture  
Dew Point -1 °F    
Average Humidity 23    
Maximum Humidity 46    
Minimum Humidity 10    
Precipitation  
Precipitation 0.00 in - - ()
Sea Level Pressure  
Sea Level Pressure 30.28 in    
Wind  
Wind Speed 8 mph (NNW)    
Max Wind Speed 15 mph    
Max Gust Speed 21 mph    
Visibility 10 miles    
Events      
Averages and records for this station are not official NWS values.
T = Trace of Precipitation, MM = Missing Value Source: NWS Daily Summary

Daily Weather History Graph

Daily Weather History Graph

Search for Another Location

Airport or City:

Trip Planner

Search our weather history database for the weather conditions in past years. The results will help you decide how hot, cold, wet, or windy it might be!

Date:

Astronomy

Feb. 28, 2013 Rise Set
Actual Time 6:41 AM MST 6:09 PM MST
Civil Twilight 6:16 AM MST 6:34 PM MST
Nautical Twilight 5:47 AM MST 7:02 PM MST
Astronomical Twilight 5:19 AM MST 7:31 PM MST
Moon 9:24 PM MST (2/28) 8:05 AM MST (2/28)
Length of Visible Light 12h 17m
Length of Day
11h 28m
Waning Gibbous, 90% of the Moon is Illuminated
Feb 28
Waning Gibbous
Mar 4
Last Quarter
Mar 11
New
Mar 19
First Quarter
Mar 27
Full

Hourly Weather History & Observations

Time (MST) Temp. Windchill Dew Point Humidity Pressure Visibility Wind Dir Wind Speed Gust Speed Precip Events Conditions
12:15 AM 24.8 °F 14.0 °F -0.4 °F 34% 30.24 in 10.0 mi North 11.5 mph - N/A   Clear
12:35 AM 23.0 °F 13.1 °F -0.4 °F 36% 30.24 in 10.0 mi North 9.2 mph - N/A   Clear
12:55 AM 23.0 °F 13.1 °F -0.4 °F 36% 30.24 in 10.0 mi North 9.2 mph - N/A   Clear
1:15 AM 23.0 °F 12.4 °F -0.4 °F 36% 30.24 in 10.0 mi North 10.4 mph - N/A   Clear
1:35 AM 23.0 °F 12.4 °F -0.4 °F 36% 30.24 in 10.0 mi North 10.4 mph - N/A   Clear
1:55 AM 23.0 °F 11.7 °F -0.4 °F 36% 30.24 in 10.0 mi North 11.5 mph - N/A   Clear
2:15 AM 23.0 °F 12.4 °F -0.4 °F 36% 30.23 in 10.0 mi North 10.4 mph - N/A   Clear
2:35 AM 23.0 °F 11.7 °F -0.4 °F 36% 30.22 in 10.0 mi North 11.5 mph - N/A   Clear
2:55 AM 23.0 °F 11.7 °F -0.4 °F 36% 30.22 in 10.0 mi North 11.5 mph - N/A   Clear
3:15 AM 23.0 °F 11.7 °F -0.4 °F 36% 30.22 in 10.0 mi North 11.5 mph - N/A   Clear
3:55 AM 23.0 °F 11.1 °F -0.4 °F 36% 30.21 in 10.0 mi North 12.7 mph - N/A   Clear
4:15 AM 23.0 °F 11.7 °F -0.4 °F 36% 30.21 in 10.0 mi North 11.5 mph - N/A   Clear
4:35 AM 23.0 °F 15.8 °F -0.4 °F 36% 30.22 in 10.0 mi SE 5.8 mph - N/A   Clear
4:55 AM 26.6 °F - -0.4 °F 31% 30.22 in 10.0 mi Calm Calm - N/A   Clear
5:15 AM 24.8 °F - -0.4 °F 34% 30.24 in 10.0 mi Calm Calm - N/A   Clear
5:35 AM 23.0 °F 18.4 °F -0.4 °F 36% 30.24 in 10.0 mi West 3.5 mph - N/A   Clear
5:55 AM 19.4 °F 12.8 °F -0.4 °F 42% 30.25 in 10.0 mi WNW 4.6 mph - N/A   Clear
6:15 AM 15.8 °F 7.2 °F -2.2 °F 45% 30.26 in 10.0 mi NNW 5.8 mph - N/A   Clear
6:35 AM 19.4 °F 10.4 °F -0.4 °F 42% 30.26 in 10.0 mi WNW 6.9 mph - N/A   Clear
6:55 AM 19.4 °F 10.4 °F 1.4 °F 46% 30.27 in 10.0 mi NW 6.9 mph - N/A   Clear
7:15 AM 24.8 °F 16.9 °F 1.4 °F 36% 30.28 in 10.0 mi WNW 6.9 mph - N/A   Clear
7:35 AM 28.4 °F 22.2 °F 1.4 °F 31% 30.29 in 10.0 mi WNW 5.8 mph - N/A   Clear
7:55 AM 33.8 °F 29.6 °F 1.4 °F 25% 30.30 in 10.0 mi WNW 4.6 mph - N/A   Clear
8:15 AM 35.6 °F - 1.4 °F 24% 30.31 in 10.0 mi Calm Calm - N/A   Clear
8:35 AM 37.4 °F - 1.4 °F 22% 30.31 in 10.0 mi Calm Calm - N/A   Clear
8:55 AM 39.2 °F 37.0 °F -0.4 °F 19% 30.31 in 10.0 mi East 3.5 mph - N/A   Clear
9:15 AM 41.0 °F 36.4 °F -0.4 °F 18% 30.32 in 10.0 mi ENE 6.9 mph - N/A   Clear
9:35 AM 44.6 °F 38.4 °F -0.4 °F 15% 30.31 in 10.0 mi NE 12.7 mph - N/A   Clear
10:15 AM 44.6 °F 41.4 °F -2.2 °F 14% 30.31 in 10.0 mi NNE 5.8 mph - N/A   Clear
10:35 AM 46.4 °F 42.9 °F -7.6 °F 10% 30.31 in 10.0 mi ENE 6.9 mph - N/A   Clear
10:55 AM 46.4 °F 42.4 °F -4.0 °F 12% 30.31 in 10.0 mi ENE 8.1 mph - N/A   Clear
11:15 AM 46.4 °F 43.5 °F -4.0 °F 12% 30.31 in 10.0 mi ESE 5.8 mph - N/A   Clear
11:35 AM 48.2 °F - -2.2 °F 12% 30.31 in 10.0 mi Calm Calm - N/A   Clear
11:55 AM 48.2 °F - -2.2 °F 12% 30.30 in 10.0 mi Calm Calm - N/A   Clear
12:15 PM 48.2 °F - -2.2 °F 12% 30.29 in 10.0 mi SSE 10.4 mph 16.1 mph N/A   Clear
12:35 PM 50.0 °F - -2.2 °F 12% 30.29 in 10.0 mi ESE 4.6 mph - N/A   Clear
12:55 PM 50.0 °F - -2.2 °F 12% 30.27 in 10.0 mi SW 6.9 mph 16.1 mph N/A   Clear
1:15 PM 50.0 °F - -4.0 °F 11% 30.27 in 10.0 mi SSW 4.6 mph 18.4 mph N/A   Clear
1:35 PM 51.8 °F - -2.2 °F 11% 30.25 in 10.0 mi South 10.4 mph - N/A   Clear
1:55 PM 51.8 °F - -4.0 °F 10% 30.26 in 10.0 mi South 8.1 mph - N/A   Clear
2:35 PM 53.6 °F - -2.2 °F 10% 30.26 in 10.0 mi SE 9.2 mph 17.3 mph N/A   Clear
2:55 PM 53.6 °F - -2.2 °F 10% 30.26 in 10.0 mi South 11.5 mph 18.4 mph N/A   Clear
3:15 PM 53.6 °F - -2.2 °F 10% 30.26 in 10.0 mi SSE 11.5 mph 18.4 mph N/A   Clear
3:35 PM 53.6 °F - -2.2 °F 10% 30.26 in 10.0 mi South 13.8 mph 19.6 mph N/A   Clear
3:55 PM 53.6 °F - -2.2 °F 10% 30.26 in 10.0 mi South 13.8 mph 20.7 mph N/A   Clear
4:15 PM 53.6 °F - -2.2 °F 10% 30.26 in 10.0 mi SSW 15.0 mph 20.7 mph N/A   Clear
4:35 PM 53.6 °F - -0.4 °F 11% 30.26 in 10.0 mi South 12.7 mph - N/A   Clear
4:55 PM 51.8 °F - -0.4 °F 12% 30.26 in 10.0 mi South 12.7 mph - N/A   Clear
5:15 PM 51.8 °F - -0.4 °F 12% 30.27 in 10.0 mi SSW 8.1 mph - N/A   Clear
5:35 PM 50.0 °F - -0.4 °F 13% 30.27 in 10.0 mi South 12.7 mph - N/A   Clear
5:55 PM 48.2 °F - -0.4 °F 13% 30.28 in 10.0 mi South 9.2 mph - N/A   Clear
6:15 PM 46.4 °F 41.9 °F -2.2 °F 13% 30.28 in 10.0 mi South 9.2 mph - N/A   Clear
6:35 PM 42.8 °F 40.1 °F -2.2 °F 15% 30.28 in 10.0 mi South 4.6 mph - N/A   Clear
6:55 PM 42.8 °F - -2.2 °F 15% 30.29 in 10.0 mi Calm Calm - N/A   Clear
7:15 PM 39.2 °F - -2.2 °F 17% 30.30 in 10.0 mi Calm Calm - N/A   Clear
7:35 PM 32.0 °F - -4.0 °F 21% 30.30 in 10.0 mi Calm Calm - N/A   Clear
7:55 PM 32.0 °F - -4.0 °F 21% 30.31 in 10.0 mi Calm Calm - N/A   Clear
8:15 PM 32.0 °F 23.6 °F -4.0 °F 21% 30.31 in 10.0 mi WNW 10.4 mph - N/A   Clear
8:35 PM 32.0 °F 24.8 °F -2.2 °F 23% 30.31 in 10.0 mi NNW 8.1 mph - N/A   Clear
9:35 PM 28.4 °F 18.5 °F -0.4 °F 29% 30.32 in 10.0 mi NNW 11.5 mph - N/A   Clear
9:55 PM 30.2 °F 20.8 °F -0.4 °F 27% 30.33 in 10.0 mi NNW 11.5 mph - N/A   Clear
10:35 PM 30.2 °F 21.3 °F -0.4 °F 27% 30.33 in 10.0 mi North 10.4 mph - N/A   Clear
10:55 PM 26.6 °F 16.2 °F -0.4 °F 31% 30.33 in 10.0 mi NNW 11.5 mph - N/A   Clear
11:15 PM 28.4 °F 20.4 °F -0.4 °F 29% 30.32 in 10.0 mi North 8.1 mph - N/A   Clear
11:35 PM 28.4 °F 19.7 °F -0.4 °F 29% 30.33 in 10.0 mi NNE 9.2 mph - N/A   Clear
11:55 PM 28.4 °F 18.5 °F -0.4 °F 29% 30.33 in 10.0 mi North 11.5 mph - N/A   Clear